SCP
0 0 0 0 0 0 0 0 0 0 0 0 0 0 0 0 0 0 0 0 0 0 0 0 0 0 0 0 0 0 0 0 0 0 0 0 0 0 0 0 0 0 0
0 0 0 0 0 0 0 0 0 0 0 0 0 0 0 0 0 0 0 0 0 0 0 0 0 0 0 0 0 0 0 0 0 0 0 0 0 0 0 0 0 0 0
0 0 0 0 0 0 0 0 0 0 0 0 0 0 0 0 0 0 0 0 0 0 0 0 0 0 0 0 0 0 0 0 0 0 0 0 0 0 0 0 0 0 0
0 0 0 0 0 0 0 0 0 0 0 0 0 0 0 0 0 0 0 0 0 0 0 0 0 0 0 0 0 0 0 0 0 0 0 0 0 0 0 0 0 0 0
0 0 0 0 0 0 0 0 0 0 0 0 0 0 0 0 0 0 0 0 0 0 0 0 0 0 0 0 0 0 0 0 0 0 0 0 0 0 0 0 0 0 0
0 0 0 0 0 0 0 0 0 0 0 0 0 0 0 0 0 0 0 0 0 0 0 0 0 0 0 0 0 0 0 0 0 0 0 0 0 0 0 0 0 0 0
0 0 0 0 0 0 0 0 0 0 0 0 0 0 0 0 0 0 0 0 0 0 0 0 0 0 0 0 0 0 0 0 0 0 0 0 0 0 0 0 0 0 0
0 0 0 0 0 0 0 0 0 0 0 0 0 0 0 0 0 0 0 0 0 0 0 0 0 0 0 0 0 0 0 0 0 0 0 0 0 0 0 0 0 0 0
0 0 0 0 0 0 0 0 0 0 0 0 0 0 0 0 0 0 0 0 0 0 0 0 0 0 0 0 0 0 0 0 0 0 0 0 0 0 0 0 0 0 0
0 0 0 0 0 0 0 0 0 0 0 0 0 0 0 0 0 0 0 0 0 0 0 0 0 0 0 0 0 0 0 0 0 0 0 0 0 0 0 0 0 0 0
0 0 0 0 0 0 0 0 0 0 0 0 0 0 0 0 0 0 0 0 0 0 0 0 0 0 0 0 0 0 0 0 0 0 0 0 0 0 0 0 0 0 0
0 0 0 0 0 0 0 0 0 0 0 0 0 0 0 0 0 0 0 0 0 0 0 0 0 0 0 0 0 0 0 0 0 0 0 0 0 0 0 0 0 0 0
0 0 0 0 0 0 0 0 0 0 0 0 0 0 0 0 0 0 0 0 0 0 0 0 0 0 0 0 0 0 0 0 0 0 0 0 0 0 0 0 0 0 0
0 0 0 0 0 0 0 0 0 0 0 0 0 0 0 0 0 0 0 0 0 0 0 0 0 0 0 0 0 0 0 0 0 0 0 0 0 0 0 0 0 0 0
0 0 0 0 0 0 0 0 0 0 0 0 0 0 0 0 0 0 0 0 0 0 0 0 0 0 0 0 0 0 0 0 0 0 0 0 0 0 0 0 0 0 0
0 0 0 0 0 0 0 0 0 0 0 0 0 0 0 0 0 0 0 0 0 0 0 0 0 0 0 0 0 0 0 0 0 0 0 0 0 0 0 0 0 0 0
0 0 0 0 0 0 0 0 0 0 0 0 0 0 0 0 0 0 0 0 0 0 0 0 0 0 0 0 0 0 0 0 0 0 0 0 0 0 0 0 0 0 0
0 0 0 0 0 0 0 0 0 0 0 0 0 0 0 0 0 0 0 0 0 0 0 0 0 0 0 0 0 0 0 0 0 0 0 0 0 0 0 0 0 0 0
0 0 0 0 0 0 0 0 0 0 0 0 0 0 0 0 0 0 0 0 0 0 0 0 0 0 0 0 0 0 0 0 0 0 0 0 0 0 0 0 0 0 0
0 0 0 0 0 0 0 0 0 0 0 0 0 0 0 0 0 0 0 0 0 0 0 0 0 0 0 0 0 0 0 0 0 0 0 0 0 0 0 0 0 0 0
0 0 0 0 0 0 0 0 0 0 0 0 0 0 0 0 0 0 0 0 0 0 0 0 0 0 0 0 0 0 0 0 0 0 0 0 0 0 0 0 0 0 0
0 0 0 0 0 0 0 0 0 0 0 0 0 0 0 0 0 0 0 0 0 0 0 0 0 0 0 0 0 0 0 0 0 0 0 0 0 0 0 0 0 0 0
0 0 0 0 0 0 0 0 0 0 0 0 0 0 0 0 0 0 0 0 0 0 0 0 0 0 0 0 0 0 0 0 0 0 0 0 0 0 0 0 0 0 0
0 0 0 0 0 0 0 0 0 0 0 0 0 0 0 0 0 0 0 0 0 0 0 0 0 0 0 0 0 0 0 0 0 0 0 0 0 0 0 0 0 0 0
0 0 0 0 0 0 0 0 0 0 0 0 0 0 0 0 0 0 0 0 0 0 0 0 0 0 0 0 0 0 0 0 0 0 0 0 0 0 0 0 0 0 0
0 0 0 0 0 0 0 0 0 0 0 0 0 0 0 0 0 0 0 0 0 0 0 0 0 0 0 0 0 0 0 0 0 0 0 0 0 0 0 0 0 0 0
Wind_Speed_500mb
99 99 104 99 91 89 90 88 80 69 62 58 57 55 50 54 53 58 55 53 57 61 60 61 59 60 60 54 49 45 49 47 53 57 41 38 39 42 40 37 39 34 36
104 98 100 96 91 88 88 87 80 71 64 60 57 54 51 61 59 60 61 61 57 64 60 60 61 55 52 51 48 54 53 45 53 44 47 36 42 36 34 38 36 38 39
107 102 99 98 92 87 85 84 78 69 64 60 58 61 63 62 59 60 61 59 61 62 56 52 51 52 53 51 52 43 44 36 41 44 38 34 28 30 36 38 37 36 35
100 101 101 96 89 84 83 79 74 69 67 67 66 65 64 61 60 58 57 61 51 51 49 50 52 51 51 47 43 34 34 34 33 36 28 33 37 34 31 28 30 34 43
93 98 99 94 88 82 77 75 73 71 68 65 66 67 65 62 63 64 64 55 50 51 56 49 38 30 29 32 37 35 31 33 30 31 37 35 28 24 23 27 36 44 50
89 91 91 87 85 81 77 73 71 68 65 65 67 63 63 62 64 59 55 47 43 37 28 28 28 29 29 31 34 34 33 31 33 38 31 23 20 24 30 38 45 50 54
85 86 84 82 83 78 73 71 69 66 65 65 62 61 61 57 52 49 46 41 33 31 30 31 33 29 30 32 31 26 28 34 32 26 22 24 26 31 38 42 46 46 46
67 74 76 76 75 74 72 69 66 65 64 62 61 57 52 48 47 40 34 34 31 29 29 27 27 28 27 28 29 32 34 31 31 28 26 26 29 34 38 41 41 45 47
56 64 68 70 72 74 73 70 69 66 63 61 58 53 47 43 38 36 34 32 32 29 27 27 29 31 33 33 30 29 27 27 28 29 30 31 32 34 37 38 40 43 49
60 62 66 68 71 73 69 67 64 60 59 58 53 47 42 40 37 35 33 32 32 29 27 27 26 28 26 25 24 24 26 32 35 35 35 37 38 40 39 41 41 40 44
55 59 66 65 66 65 65 64 64 64 57 54 49 43 41 38 36 35 31 30 29 28 27 26 26 26 24 23 24 25 31 35 36 38 41 41 42 45 46 46 47 47 47
57 59 61 61 62 63 61 62 60 58 57 51 47 46 44 40 38 35 33 32 30 29 30 30 29 28 27 27 29 31 36 42 44 45 43 47 49 50 52 52 50 50 50
62 59 60 59 59 60 62 62 60 59 54 49 50 47 45 43 40 35 35 34 32 30 30 30 28 28 29 30 32 36 42 45 46 50 51 51 53 53 52 51 51 53 52
66 68 66 64 64 61 57 56 57 55 50 51 51 47 44 42 39 40 39 36 33 30 29 29 29 30 33 33 36 41 45 49 50 51 51 50 51 52 51 52 55 56 63
78 72 76 69 66 65 60 54 50 43 42 46 45 42 42 42 41 39 34 31 29 27 27 28 28 30 33 34 37 40 44 46 47 48 50 53 53 54 52 51 56 59 61
84 81 82 75 75 69 64 60 53 46 48 46 42 39 42 41 38 29 24 24 21 21 23 25 28 29 29 32 36 39 42 42 43 47 49 51 51 53 52 48 49 50 53
73 78 81 76 72 70 68 66 66 58 49 44 42 42 38 31 26 23 21 21 20 19 19 23 23 24 28 33 35 37 38 39 43 45 49 49 50 49 49 50 49 50 52
70 69 71 68 67 66 63 63 60 53 54 49 44 37 30 23 22 19 18 16 16 17 19 20 20 24 30 35 37 38 40 42 44 45 46 47 49 50 50 50 49 51 55
66 66 61 60 61 61 59 55 49 42 40 39 38 33 28 26 23 22 20 18 18 21 21 23 27 32 37 40 43 44 45 47 47 47 46 47 48 49 49 47 49 50 52
60 58 57 57 60 59 56 53 49 45 42 38 35 30 28 23 19 16 13 15 17 20 24 30 34 37 41 44 46 46 46 47 50 51 50 48 47 50 52 52 53 53 51
64 63 60 59 57 54 51 49 47 45 44 39 33 27 20 16 14 13 15 17 20 27 32 35 38 42 46 47 49 49 49 50 51 53 53 54 55 56 53 52 51 50 51
68 65 60 59 59 58 54 49 46 42 37 31 25 18 14 12 13 16 20 25 28 31 34 35 40 42 46 48 49 49 49 50 48 47 47 46 46 46 46 48 50 51 53
67 72 71 68 64 60 55 48 41 35 29 23 17 12 10 16 20 21 24 27 30 34 33 33 36 39 42 45 45 45 47 49 46 46 45 44 43 44 44 44 46 48 49
67 67 68 65 58 52 46 41 34 26 18 10 8 12 15 19 21 23 25 26 28 30 31 31 32 34 38 39 39 39 40 45 46 46 47 50 47 44 43 42 42 44 44
64 62 58 54 49 42 35 26 17 10 9 11 13 16 18 18 20 23 25 25 27 27 31 34 35 35 38 39 37 38 40 42 46 45 48 48 52 48 43 41 41 43 42
56 52 46 38 29 24 20 18 17 17 14 12 12 13 17 20 23 26 28 29 30 28 29 34 36 36 39 40 41 41 42 43 43 44 46 48 48 46 44 43 42 41 41
Wind_Direction_500mb
237 238 236 238 240 239 241 242 243 242 239 236 235 236 239 244 245 246 247 250 258 260 261 266 266 268 270 271 274 271 275 274 260 276 268 258 265 260 272 258 263 264 268
236 238 235 237 239 239 239 242 242 239 236 232 231 233 240 243 245 250 249 253 257 258 259 261 262 263 261 266 270 268 271 267 256 256 271 263 261 260 258 259 264 264 268
235 236 233 234 237 238 239 241 241 239 235 230 230 237 240 245 247 249 250 251 259 255 258 256 255 256 258 260 264 262 259 252 260 266 259 259 261 262 264 264 266 267 272
234 234 233 233 236 237 239 239 238 236 233 230 234 237 241 242 245 243 246 254 247 249 248 251 252 254 255 255 254 252 255 263 261 256 255 269 274 267 265 270 276 281 280
234 234 234 233 232 233 236 235 234 234 233 231 232 235 237 241 245 247 254 249 247 249 256 252 246 246 245 254 260 253 262 264 252 263 271 270 264 261 275 281 287 284 284
234 234 233 231 230 230 230 230 231 231 230 228 228 231 239 241 246 243 243 246 244 245 233 224 229 238 245 248 252 258 256 253 266 271 261 255 265 280 289 291 290 290 288
232 231 231 227 226 227 226 224 223 225 223 225 228 232 238 234 231 231 230 232 225 220 227 230 225 227 240 246 246 244 261 271 264 252 245 256 271 287 296 301 298 292 289
231 229 225 222 222 220 218 219 220 217 216 226 229 224 220 220 223 221 214 215 215 220 220 223 217 223 233 239 246 252 253 248 241 238 245 261 279 291 298 301 298 294 291
225 224 219 215 213 213 212 212 215 219 218 215 214 214 214 211 206 208 209 211 214 211 210 214 217 225 234 239 245 249 243 240 238 242 256 272 279 285 292 296 298 299 297
225 226 225 219 214 213 213 210 210 209 209 208 210 202 200 202 202 203 205 208 208 208 211 220 227 234 239 243 243 242 235 233 239 252 262 272 282 290 296 298 297 296 293
229 224 221 215 211 209 204 202 202 203 201 200 197 196 198 201 204 203 202 206 209 211 213 218 224 232 236 236 238 237 238 242 251 258 267 277 284 289 289 287 289 289 286
217 216 213 207 202 200 199 198 196 196 195 193 194 196 198 202 204 203 203 210 214 216 218 220 227 234 237 237 239 241 245 250 255 262 268 274 277 281 285 286 286 288 288
212 205 205 200 199 199 198 195 195 194 192 193 199 199 201 202 203 204 210 214 215 218 225 229 234 242 244 245 250 252 253 257 261 265 270 275 279 279 279 283 287 290 291
210 200 199 199 197 198 197 200 200 196 193 198 201 197 201 204 205 207 210 212 213 218 227 232 238 245 252 257 261 264 266 269 270 273 278 279 278 280 283 288 289 288 289
210 201 198 195 200 200 199 201 200 199 202 209 203 202 206 207 206 206 208 212 218 226 237 244 249 251 259 266 269 274 277 279 283 288 289 290 290 291 291 291 292 293 293
200 196 197 195 196 198 198 192 189 196 196 193 194 202 204 201 206 207 213 224 232 238 244 256 260 267 269 272 274 277 280 287 292 291 293 296 298 299 299 299 298 298 297
215 199 196 193 197 198 195 196 190 187 189 193 199 204 199 201 199 204 214 224 234 246 257 262 266 272 274 275 277 280 283 287 292 295 297 297 296 297 299 300 299 298 298
215 208 197 192 196 198 196 196 198 197 189 185 188 193 191 192 193 203 216 227 244 251 252 257 271 280 281 281 282 286 292 294 295 295 297 298 298 299 299 301 302 303 303
204 200 195 193 193 197 194 192 190 186 182 183 184 183 184 191 194 203 212 224 237 250 268 278 278 276 276 281 283 286 289 292 294 295 296 298 300 300 302 303 304 304 303
191 194 191 189 185 185 183 182 179 177 175 174 170 170 180 185 199 213 232 247 262 274 282 282 283 286 286 286 288 290 289 290 291 293 294 295 295 295 298 300 300 301 301
179 180 179 176 176 177 178 177 173 170 169 166 164 172 177 190 210 227 248 270 280 283 283 288 290 288 287 288 289 289 292 293 293 294 295 296 297 298 299 297 296 297 297
170 167 167 166 166 167 166 165 164 163 162 163 166 175 189 214 243 263 276 279 283 284 286 289 288 288 290 292 293 294 295 294 294 295 296 296 295 295 294 295 297 298 297
161 158 157 160 161 159 158 157 157 160 162 163 169 194 241 261 266 278 284 288 287 287 290 289 291 293 296 294 294 298 301 300 302 304 304 303 303 302 300 301 302 299 299
152 150 151 150 150 151 154 156 158 155 154 173 234 250 259 271 277 281 284 290 293 292 295 293 292 292 291 291 297 302 305 307 308 308 306 304 303 303 304 305 301 299 298
145 145 146 145 146 147 147 149 149 164 195 220 238 251 263 274 284 289 289 288 288 291 296 295 298 299 297 299 303 306 304 304 302 302 300 300 302 303 306 304 302 298 301
138 137 136 139 146 154 159 169 183 193 203 225 250 270 281 286 288 290 291 291 289 293 296 299 298 301 300 301 303 301 300 299 299 297 298 300 300 303 304 301 299 300 302
Wind_Speed_850mb
99 99 104 99 91 89 90 88 80 69 62 58 57 55 50 54 53 58 55 53 57 61 60 61 59 60 60 54 49 45 49 47 53 57 41 38 39 42 40 37 39 34 36
104 98 100 96 91 88 88 87 80 71 64 60 57 54 51 61 59 60 61 61 57 64 60 60 61 55 52 51 48 54 53 45 53 44 47 36 42 36 34 38 36 38 39
107 102 99 98 92 87 85 84 78 69 64 60 58 61 63 62 59 60 61 59 61 62 56 52 51 52 53 51 52 43 44 36 41 44 38 34 28 30 36 38 37 36 35
100 101 101 96 89 84 83 79 74 69 67 67 66 65 64 61 60 58 57 61 51 51 49 50 52 51 51 47 43 34 34 34 33 36 28 33 37 34 31 28 30 34 43
93 98 99 94 88 82 77 75 73 71 68 65 66 67 65 62 63 64 64 55 50 51 56 49 38 30 29 32 37 35 31 33 30 31 37 35 28 24 23 27 36 44 50
89 91 91 87 85 81 77 73 71 68 65 65 67 63 63 62 64 59 55 47 43 37 28 28 28 29 29 31 34 34 33 31 33 38 31 23 20 24 30 38 45 50 54
85 86 84 82 83 78 73 71 69 66 65 65 62 61 61 57 52 49 46 41 33 31 30 31 33 29 30 32 31 26 28 34 32 26 22 24 26 31 38 42 46 46 46
67 74 76 76 75 74 72 69 66 65 64 62 61 57 52 48 47 40 34 34 31 29 29 27 27 28 27 28 29 32 34 31 31 28 26 26 29 34 38 41 41 45 47
56 64 68 70 72 74 73 70 69 66 63 61 58 53 47 43 38 36 34 32 32 29 27 27 29 31 33 33 30 29 27 27 28 29 30 31 32 34 37 38 40 43 49
60 62 66 68 71 73 69 67 64 60 59 58 53 47 42 40 37 35 33 32 32 29 27 27 26 28 26 25 24 24 26 32 35 35 35 37 38 40 39 41 41 40 44
55 59 66 65 66 65 65 64 64 64 57 54 49 43 41 38 36 35 31 30 29 28 27 26 26 26 24 23 24 25 31 35 36 38 41 41 42 45 46 46 47 47 47
57 59 61 61 62 63 61 62 60 58 57 51 47 46 44 40 38 35 33 32 30 29 30 30 29 28 27 27 29 31 36 42 44 45 43 47 49 50 52 52 50 50 50
62 59 60 59 59 60 62 62 60 59 54 49 50 47 45 43 40 35 35 34 32 30 30 30 28 28 29 30 32 36 42 45 46 50 51 51 53 53 52 51 51 53 52
66 68 66 64 64 61 57 56 57 55 50 51 51 47 44 42 39 40 39 36 33 30 29 29 29 30 33 33 36 41 45 49 50 51 51 50 51 52 51 52 55 56 63
78 72 76 69 66 65 60 54 50 43 42 46 45 42 42 42 41 39 34 31 29 27 27 28 28 30 33 34 37 40 44 46 47 48 50 53 53 54 52 51 56 59 61
84 81 82 75 75 69 64 60 53 46 48 46 42 39 42 41 38 29 24 24 21 21 23 25 28 29 29 32 36 39 42 42 43 47 49 51 51 53 52 48 49 50 53
73 78 81 76 72 70 68 66 66 58 49 44 42 42 38 31 26 23 21 21 20 19 19 23 23 24 28 33 35 37 38 39 43 45 49 49 50 49 49 50 49 50 52
70 69 71 68 67 66 63 63 60 53 54 49 44 37 30 23 22 19 18 16 16 17 19 20 20 24 30 35 37 38 40 42 44 45 46 47 49 50 50 50 49 51 55
66 66 61 60 61 61 59 55 49 42 40 39 38 33 28 26 23 22 20 18 18 21 21 23 27 32 37 40 43 44 45 47 47 47 46 47 48 49 49 47 49 50 52
60 58 57 57 60 59 56 53 49 45 42 38 35 30 28 23 19 16 13 15 17 20 24 30 34 37 41 44 46 46 46 47 50 51 50 48 47 50 52 52 53 53 51
64 63 60 59 57 54 51 49 47 45 44 39 33 27 20 16 14 13 15 17 20 27 32 35 38 42 46 47 49 49 49 50 51 53 53 54 55 56 53 52 51 50 51
68 65 60 59 59 58 54 49 46 42 37 31 25 18 14 12 13 16 20 25 28 31 34 35 40 42 46 48 49 49 49 50 48 47 47 46 46 46 46 48 50 51 53
67 72 71 68 64 60 55 48 41 35 29 23 17 12 10 16 20 21 24 27 30 34 33 33 36 39 42 45 45 45 47 49 46 46 45 44 43 44 44 44 46 48 49
67 67 68 65 58 52 46 41 34 26 18 10 8 12 15 19 21 23 25 26 28 30 31 31 32 34 38 39 39 39 40 45 46 46 47 50 47 44 43 42 42 44 44
64 62 58 54 49 42 35 26 17 10 9 11 13 16 18 18 20 23 25 25 27 27 31 34 35 35 38 39 37 38 40 42 46 45 48 48 52 48 43 41 41 43 42
56 52 46 38 29 24 20 18 17 17 14 12 12 13 17 20 23 26 28 29 30 28 29 34 36 36 39 40 41 41 42 43 43 44 46 48 48 46 44 43 42 41 41
Wind_Direction_850mb
237 238 236 238 240 239 241 242 243 242 239 236 235 236 239 244 245 246 247 250 258 260 261 266 266 268 270 271 274 271 275 274 260 276 268 258 265 260 272 258 263 264 268
236 238 235 237 239 239 239 242 242 239 236 232 231 233 240 243 245 250 249 253 257 258 259 261 262 263 261 266 270 268 271 267 256 256 271 263 261 260 258 259 264 264 268
235 236 233 234 237 238 239 241 241 239 235 230 230 237 240 245 247 249 250 251 259 255 258 256 255 256 258 260 264 262 259 252 260 266 259 259 261 262 264 264 266 267 272
234 234 233 233 236 237 239 239 238 236 233 230 234 237 241 242 245 243 246 254 247 249 248 251 252 254 255 255 254 252 255 263 261 256 255 269 274 267 265 270 276 281 280
234 234 234 233 232 233 236 235 234 234 233 231 232 235 237 241 245 247 254 249 247 249 256 252 246 246 245 254 260 253 262 264 252 263 271 270 264 261 275 281 287 284 284
234 234 233 231 230 230 230 230 231 231 230 228 228 231 239 241 246 243 243 246 244 245 233 224 229 238 245 248 252 258 256 253 266 271 261 255 265 280 289 291 290 290 288
232 231 231 227 226 227 226 224 223 225 223 225 228 232 238 234 231 231 230 232 225 220 227 230 225 227 240 246 246 244 261 271 264 252 245 256 271 287 296 301 298 292 289
231 229 225 222 222 220 218 219 220 217 216 226 229 224 220 220 223 221 214 215 215 220 220 223 217 223 233 239 246 252 253 248 241 238 245 261 279 291 298 301 298 294 291
225 224 219 215 213 213 212 212 215 219 218 215 214 214 214 211 206 208 209 211 214 211 210 214 217 225 234 239 245 249 243 240 238 242 256 272 279 285 292 296 298 299 297
225 226 225 219 214 213 213 210 210 209 209 208 210 202 200 202 202 203 205 208 208 208 211 220 227 234 239 243 243 242 235 233 239 252 262 272 282 290 296 298 297 296 293
229 224 221 215 211 209 204 202 202 203 201 200 197 196 198 201 204 203 202 206 209 211 213 218 224 232 236 236 238 237 238 242 251 258 267 277 284 289 289 287 289 289 286
217 216 213 207 202 200 199 198 196 196 195 193 194 196 198 202 204 203 203 210 214 216 218 220 227 234 237 237 239 241 245 250 255 262 268 274 277 281 285 286 286 288 288
212 205 205 200 199 199 198 195 195 194 192 193 199 199 201 202 203 204 210 214 215 218 225 229 234 242 244 245 250 252 253 257 261 265 270 275 279 279 279 283 287 290 291
210 200 199 199 197 198 197 200 200 196 193 198 201 197 201 204 205 207 210 212 213 218 227 232 238 245 252 257 261 264 266 269 270 273 278 279 278 280 283 288 289 288 289
210 201 198 195 200 200 199 201 200 199 202 209 203 202 206 207 206 206 208 212 218 226 237 244 249 251 259 266 269 274 277 279 283 288 289 290 290 291 291 291 292 293 293
200 196 197 195 196 198 198 192 189 196 196 193 194 202 204 201 206 207 213 224 232 238 244 256 260 267 269 272 274 277 280 287 292 291 293 296 298 299 299 299 298 298 297
215 199 196 193 197 198 195 196 190 187 189 193 199 204 199 201 199 204 214 224 234 246 257 262 266 272 274 275 277 280 283 287 292 295 297 297 296 297 299 300 299 298 298
215 208 197 192 196 198 196 196 198 197 189 185 188 193 191 192 193 203 216 227 244 251 252 257 271 280 281 281 282 286 292 294 295 295 297 298 298 299 299 301 302 303 303
204 200 195 193 193 197 194 192 190 186 182 183 184 183 184 191 194 203 212 224 237 250 268 278 278 276 276 281 283 286 289 292 294 295 296 298 300 300 302 303 304 304 303
191 194 191 189 185 185 183 182 179 177 175 174 170 170 180 185 199 213 232 247 262 274 282 282 283 286 286 286 288 290 289 290 291 293 294 295 295 295 298 300 300 301 301
179 180 179 176 176 177 178 177 173 170 169 166 164 172 177 190 210 227 248 270 280 283 283 288 290 288 287 288 289 289 292 293 293 294 295 296 297 298 299 297 296 297 297
170 167 167 166 166 167 166 165 164 163 162 163 166 175 189 214 243 263 276 279 283 284 286 289 288 288 290 292 293 294 295 294 294 295 296 296 295 295 294 295 297 298 297
161 158 157 160 161 159 158 157 157 160 162 163 169 194 241 261 266 278 284 288 287 287 290 289 291 293 296 294 294 298 301 300 302 304 304 303 303 302 300 301 302 299 299
152 150 151 150 150 151 154 156 158 155 154 173 234 250 259 271 277 281 284 290 293 292 295 293 292 292 291 291 297 302 305 307 308 308 306 304 303 303 304 305 301 299 298
145 145 146 145 146 147 147 149 149 164 195 220 238 251 263 274 284 289 289 288 288 291 296 295 298 299 297 299 303 306 304 304 302 302 300 300 302 303 306 304 302 298 301
138 137 136 139 146 154 159 169 183 193 203 225 250 270 281 286 288 290 291 291 289 293 296 299 298 301 300 301 303 301 300 299 299 297 298 300 300 303 304 301 299 300 302